Tracking 29892 objects as of 21-Nov-2024
HD Live streaming from Space Station
objects crossing your sky now

SYMPHONIE 1

Track SYMPHONIE 1 now!
SYMPHONIE 1 is classified as:


NORAD ID: 7578
Int'l Code: 1974-101A
Perigee: 35,868.9 km
Apogee: 35,899.7 km
Inclination: 6.0 °
Period: 1,440.7 minutes
Semi major axis: 42255 km
RCS: 1.2872 m2 (large)
Launch date: December 19, 1974
Source: France/Germany (FGER)
Launch site: AIR FORCE EASTERN TEST RANGE (AFETR)
Your satellite tracking list
Your tracking list is empty




NASA's NSSDC Master Catalog

Two Line Element Set (TLE):
1 07578U 74101A   24325.48176752  .00000120  00000-0  00000-0 0  9999
2 07578   6.0464 284.2185 0003645 318.3788 210.1824  0.99949553111469
Source of the keplerian elements: AFSPC